Location: Caltech
(34.1382°N, 118.1253°W)
Time: 02:17:31
(UTC-07:00)

ARGOS - Visible Passes

Search period start: 23 April 2014 00:00
Search period end: 03 May 2014 00:00
Orbit: 821 x 835 km, 98.8° (Epoch: 22 April)

Date Brightness Start Highest point End Pass type
(mag) Time Alt. Az. Time Alt. Az. Time Alt. Az.
23 Apr 3.8 22:14:34 49° NNE 22:14:34 49° NNE 22:18:39 10° N visible
23 Apr 5.9 23:56:05 11° WNW 23:56:05 11° WNW 23:56:20 10° WNW visible
24 Apr 3.9 21:55:52 39° NE 21:55:52 39° NE 22:00:04 10° N visible
24 Apr 5.5 23:37:23 17° WNW 23:37:23 17° WNW 23:39:17 10° NW visible
25 Apr 4.3 21:37:09 28° ENE 21:37:09 28° ENE 21:41:18 10° N visible
25 Apr 5.0 23:18:40 25° WNW 23:18:40 25° WNW 23:21:35 10° NW visible
26 Apr 4.7 21:18:26 19° ENE 21:18:32 19° ENE 21:22:16 10° NNE visible
26 Apr 4.5 22:59:57 36° NW 22:59:57 36° NW 23:03:34 10° NNW visible
27 Apr 5.1 20:59:44 13° ENE 21:00:23 13° ENE 21:02:43 10° NE visible
27 Apr 3.9 22:41:15 51° NW 22:41:15 51° NW 22:45:21 10° NNW visible
28 Apr 3.5 22:22:32 59° N 22:22:32 59° N 22:26:59 10° N visible
29 Apr 3.6 22:03:50 48° NE 22:03:50 48° NE 22:08:27 10° N visible
29 Apr 5.6 23:45:21 15° WNW 23:45:21 15° WNW 23:47:06 10° NW visible
30 Apr 4.0 21:45:07 34° ENE 21:45:07 34° ENE 21:49:46 10° N visible
30 Apr 5.1 23:26:39 23° WNW 23:26:39 23° WNW 23:29:36 10° NW visible
01 May 4.5 21:26:25 23° ENE 21:26:43 23° ENE 21:30:52 10° NNE visible
01 May 4.5 23:07:56 34° WNW 23:07:56 34° WNW 23:11:42 10° NNW visible
02 May 4.9 21:07:42 15° ENE 21:08:32 16° ENE 21:11:37 10° NNE visible
02 May 3.9 22:49:14 50° WNW 22:49:14 50° WNW 22:53:34 10° NNW visible
